GFSMA_500_spd_096.txt.gz
Wind_Speed
9 23 26 22 19 15 15 14 15 16 15 16 15 17 16 15 15 13 13 13 13 12 12 12 11 10 11 9 10 12 14 14 15 17 19 19 20 19 16 17 17 16 15
9 6 27 24 21 18 17 16 16 17 18 17 18 17 17 17 17 17 14 15 16 15 15 14 14 13 13 12 12 14 16 17 18 20 23 23 22 15 15 17 14 13 14
12 10 12 16 21 20 20 19 18 17 18 19 18 17 17 16 18 18 18 18 18 17 17 16 16 16 14 15 15 16 18 18 18 19 26 26 19 16 10 13 11 12 11
15 14 14 15 17 18 19 19 20 19 19 19 20 20 19 18 18 19 19 19 20 19 19 19 18 17 17 17 16 16 18 17 17 18 24 25 11 11 13 12 9 7 9
18 19 18 17 18 19 19 21 22 22 23 22 22 23 23 22 21 20 21 21 21 21 20 20 21 20 18 19 20 20 19 18 17 18 18 22 17 8 11 14 10 10 11
12 17 22 20 19 20 22 22 23 25 25 26 27 25 25 26 26 25 24 24 24 24 22 22 22 23 22 21 22 22 20 19 16 16 17 17 17 17 15 16 13 11 11
10 11 13 17 23 20 22 23 25 27 27 27 27 30 29 27 27 28 29 29 28 27 25 23 24 25 23 23 24 24 22 18 18 19 17 17 16 15 15 14 15 15 14
10 10 12 14 16 19 24 26 27 29 28 28 30 31 30 33 30 30 30 28 28 28 27 26 23 24 23 23 24 23 21 19 20 20 19 18 16 17 16 14 15 14 16
11 12 13 14 15 17 22 25 23 29 35 30 31 32 31 32 34 33 33 30 29 28 28 26 24 24 23 22 18 19 23 22 22 20 23 22 18 18 18 17 18 17 16
13 12 11 13 14 17 19 22 24 27 24 30 34 32 30 29 29 31 30 32 30 24 30 27 28 27 24 24 20 19 21 25 23 22 24 23 23 20 20 21 20 19 19
12 14 14 13 15 18 19 22 23 24 25 26 29 37 34 31 29 28 28 30 26 35 31 30 26 25 25 22 25 21 22 24 22 24 24 25 22 21 19 18 19 19 19
14 15 15 16 15 15 18 22 21 19 25 24 25 35 34 34 27 32 32 31 32 32 28 26 24 27 24 25 27 25 27 28 25 27 25 22 20 20 18 18 19 21 20
15 16 17 16 17 17 17 18 20 19 20 22 21 20 23 27 29 26 29 28 33 34 34 30 30 30 28 28 26 28 28 26 26 26 26 27 23 21 19 18 19 20 20
16 17 17 17 18 17 17 13 14 14 17 18 21 21 17 19 22 23 31 30 28 35 34 31 33 31 31 28 29 30 29 31 31 27 27 23 22 22 22 22 22 22 22
15 17 17 18 16 14 14 13 11 8 7 10 13 13 15 16 21 26 28 31 33 32 30 28 31 31 30 31 32 32 27 27 29 24 23 22 23 23 25 27 23 23 23
14 18 17 15 18 15 14 13 13 13 14 11 10 12 14 15 16 19 19 21 24 30 32 32 29 32 35 33 33 33 36 34 29 21 26 27 29 28 29 26 23 23 23
19 21 18 16 18 18 16 15 13 12 12 10 10 9 13 13 12 12 13 17 20 23 28 27 27 26 27 25 28 27 28 28 31 33 29 29 27 29 28 27 28 28 28
24 23 21 20 16 18 19 18 14 14 14 15 14 13 13 13 13 12 12 12 14 15 18 20 22 23 23 23 23 21 22 25 28 29 29 29 31 30 30 31 32 33 38
25 23 23 23 20 17 18 19 15 15 16 17 19 16 16 17 17 15 15 16 15 16 18 20 22 22 23 23 23 23 24 24 24 24 24 25 26 25 25 29 27 30 35
34 30 26 27 25 21 21 21 22 17 20 21 22 20 16 17 19 19 19 17 18 18 19 21 23 23 21 23 22 22 21 23 25 25 24 24 25 27 29 21 22 22 18
41 33 30 29 28 25 24 23 25 22 20 23 26 23 22 20 22 22 19 20 22 23 22 20 21 21 23 24 23 23 24 25 25 25 24 23 24 26 25 26 24 22 20
36 37 35 32 31 30 28 25 29 25 22 24 22 22 20 21 23 23 24 25 26 26 23 22 22 22 22 22 25 25 25 25 24 23 24 23 24 26 26 25 22 24 19
38 38 42 39 36 32 29 30 30 32 25 22 23 22 20 19 22 25 29 29 29 26 21 20 21 22 23 25 26 23 26 24 24 21 21 20 23 26 26 27 28 23 23
17 15 35 37 34 29 30 32 33 36 32 27 26 24 18 20 22 25 28 26 22 23 21 23 24 26 25 25 27 24 24 25 23 23 22 23 24 22 24 24 24 26 20
17 27 32 40 29 32 33 32 35 37 34 30 27 22 19 20 21 24 23 22 20 23 26 27 27 28 31 30 27 29 25 23 24 26 26 25 25 24 24 26 20 21 16
23 28 32 39 34 32 33 38 36 41 35 31 30 24 23 24 24 22 25 24 26 31 30 31 32 33 31 30 30 28 28 25 25 25 24 25 23 23 26 28 27 25 21

GFSMA_500_spd_102.txt.gz
Wind_Speed
12 15 21 21 19 20 16 15 15 15 15 16 16 15 16 16 16 14 13 12 15 13 13 12 11 9 7 5 6 8 10 10 12 12 12 17 21 17 11 11 11 11 13
8 15 17 23 22 19 17 16 16 15 15 15 15 13 16 18 18 15 15 13 14 14 14 13 12 10 9 8 9 10 11 12 13 13 14 13 19 16 14 13 13 13 14
10 7 11 23 24 21 19 18 16 15 16 17 17 14 14 17 19 18 16 14 14 14 14 12 12 11 11 11 11 12 13 13 13 15 14 12 14 15 16 13 11 12 13
9 8 9 13 25 25 22 21 18 17 16 17 15 17 15 16 17 18 18 17 15 14 15 14 13 13 15 14 13 14 15 15 15 16 15 13 15 15 14 14 12 12 12
13 12 11 11 14 28 27 26 23 21 20 19 18 17 18 17 18 19 19 19 18 17 18 18 17 16 17 17 16 16 17 18 17 17 16 13 15 15 16 16 16 13 12
7 11 10 15 15 18 21 26 25 23 22 22 21 21 21 21 22 21 20 20 20 19 20 21 19 19 18 19 18 18 19 19 19 20 18 16 16 16 17 17 18 16 16
3 6 9 11 20 19 19 20 20 23 24 23 24 25 24 24 24 26 25 22 22 23 21 21 20 21 20 21 20 21 20 21 21 21 18 16 17 17 17 19 21 18 17
2 3 6 8 11 21 20 20 21 23 24 26 26 25 25 27 29 30 26 25 27 26 24 25 24 24 24 23 23 22 23 21 20 17 17 18 18 17 18 19 19 20 19
2 3 6 7 10 12 17 20 23 24 26 26 27 26 27 29 32 31 30 29 30 28 29 28 28 28 27 26 26 26 23 22 22 18 17 19 20 18 20 18 19 19 20
3 5 7 9 10 11 14 17 17 20 24 27 30 29 30 31 33 33 32 32 33 33 32 31 29 28 28 28 27 28 25 24 24 20 19 18 20 21 22 20 19 19 20
8 6 5 7 8 11 14 16 19 19 19 23 26 27 29 29 27 31 32 34 36 33 33 33 31 31 30 33 39 31 30 25 24 23 21 22 24 26 25 23 20 20 19
6 10 10 7 9 13 14 17 17 17 17 20 24 26 25 28 29 28 33 37 35 33 32 33 32 34 36 31 32 32 28 25 24 24 24 25 25 25 25 25 24 23 23
8 7 13 11 9 11 15 16 18 19 17 18 23 22 25 26 26 24 30 37 36 32 30 31 33 29 30 27 30 32 26 23 25 26 25 26 27 28 30 26 26 25 25
17 13 11 15 15 12 12 16 17 19 16 13 17 21 22 22 25 27 22 27 34 38 35 33 35 33 31 29 26 30 25 29 28 26 27 29 29 26 23 24 25 26 26
23 21 18 15 17 15 14 14 15 15 12 12 11 10 14 18 19 18 17 23 31 39 41 41 36 34 29 30 32 30 27 26 28 27 28 31 33 30 28 30 26 27 27
30 29 25 22 18 17 16 14 15 14 11 9 10 8 5 6 9 12 12 13 19 27 33 36 36 36 33 29 29 29 31 30 28 28 32 33 31 31 32 30 30 29 28
36 36 35 30 24 18 18 18 16 14 13 11 12 9 8 7 8 10 9 12 15 15 20 28 32 33 32 24 26 28 26 27 27 28 29 26 26 24 24 25 27 28 27
44 43 44 39 32 23 20 22 19 17 19 13 12 13 12 8 8 10 13 13 14 14 12 17 24 25 23 29 29 27 28 25 26 24 24 23 24 24 24 25 26 26 26
42 52 53 54 36 28 22 25 22 21 21 19 16 15 17 15 12 11 11 12 13 14 12 10 9 13 18 24 31 24 20 23 23 23 24 24 24 24 25 25 25 25 26
44 37 52 58 37 31 26 28 24 23 24 23 20 17 16 20 18 12 13 13 14 15 14 14 12 14 15 15 15 17 19 21 21 21 22 23 24 27 27 27 25 26 24
20 14 19 39 36 32 29 29 27 27 28 27 26 23 18 19 24 20 16 16 18 17 16 15 15 17 20 19 18 19 20 20 21 22 23 24 25 25 23 23 25 25 25
20 12 11 17 31 35 38 35 30 31 31 31 29 27 23 22 24 25 20 16 17 21 20 19 20 22 23 26 25 23 23 23 24 24 26 28 28 25 24 21 21 23 23
19 20 17 24 30 45 45 36 36 35 33 35 30 29 25 23 21 24 21 17 18 21 22 21 22 25 27 28 26 25 23 22 23 24 25 27 28 27 25 21 20 21 22
19 18 18 16 18 32 37 32 38 38 39 37 35 32 27 29 24 23 23 22 19 19 21 20 21 21 24 26 23 23 24 21 24 24 26 27 26 28 29 27 25 23 24
20 22 19 15 17 22 37 35 38 46 44 40 39 37 32 32 31 28 26 24 22 22 22 22 21 18 18 22 25 27 27 28 29 28 25 25 27 27 27 28 29 27 26
26 26 20 17 23 21 18 19 29 32 46 39 41 42 40 37 34 33 31 28 24 27 24 22 23 24 25 28 30 31 31 31 30 29 26 24 26 26 26 26 27 28 29

GFSMA_500_spd_105.txt.gz
Wind_Speed
12 14 16 19 18 17 16 13 14 15 16 14 13 13 14 12 12 10 11 12 12 11 12 13 11 9 7 6 5 5 6 8 10 11 11 13 14 17 15 15 12 8 11
12 14 17 19 21 19 19 15 15 16 15 13 14 14 15 14 14 14 12 11 11 12 14 14 13 11 10 9 9 9 9 9 11 11 12 13 13 15 16 15 11 12 14
15 12 16 20 25 23 20 18 16 14 15 14 14 13 14 16 16 18 16 13 12 15 17 17 15 14 12 12 11 12 12 11 12 13 14 14 15 15 14 15 14 11 14
15 12 12 11 22 24 23 20 17 15 14 14 13 14 15 14 15 17 18 17 17 17 18 18 18 17 15 13 14 13 14 15 14 15 15 15 14 14 15 15 16 15 12
17 14 11 9 10 20 26 23 19 18 17 16 15 16 16 16 16 16 18 20 20 20 20 19 19 18 16 16 16 15 16 17 17 16 17 16 17 16 16 14 15 18 16
14 15 13 13 14 13 25 26 24 22 21 21 20 19 18 18 18 19 20 20 21 21 22 20 20 20 18 18 17 17 17 18 19 18 18 17 17 18 15 15 17 18 17
9 12 13 13 15 17 16 21 23 25 26 24 23 24 22 20 19 21 23 24 24 23 21 21 21 20 20 20 18 19 20 20 20 19 19 17 15 16 16 15 17 19 17
9 9 10 12 14 17 20 19 18 21 23 22 24 25 22 23 25 26 26 26 26 27 27 23 22 22 22 22 21 22 22 22 21 20 19 18 16 17 18 17 19 18 16
6 8 9 10 11 11 17 22 22 22 23 23 25 25 24 25 28 28 28 28 30 29 29 28 28 27 26 26 25 26 25 24 21 22 21 19 20 18 17 18 20 21 18
7 7 9 10 10 10 11 16 19 22 23 24 26 27 27 28 30 29 31 31 33 33 33 29 29 27 28 29 27 28 28 24 23 24 24 21 21 19 19 21 21 23 21
11 10 9 9 10 10 13 13 14 16 19 21 19 23 25 27 31 33 32 32 33 35 34 32 33 33 32 31 31 30 32 29 28 27 26 23 23 21 21 21 22 22 22
14 15 13 11 10 12 12 14 16 17 19 17 19 22 26 27 27 27 29 33 30 34 35 33 32 33 33 32 33 34 33 32 31 28 25 25 25 24 23 24 24 24 23
14 14 15 16 15 14 12 14 16 17 19 20 21 19 23 23 27 28 27 27 28 33 35 31 31 32 32 33 30 36 36 34 32 31 26 27 26 26 26 26 26 24 22
22 17 14 14 19 19 17 15 15 16 16 20 19 19 19 22 23 24 23 28 31 32 31 32 33 29 27 27 31 30 29 29 29 28 27 27 26 28 27 27 27 24 24
27 24 20 19 15 18 21 20 16 16 16 17 16 18 15 16 19 23 21 22 21 20 22 28 34 36 32 28 27 31 33 33 24 30 33 29 28 30 30 32 30 33 31
35 30 26 25 24 21 20 23 19 18 16 17 16 13 12 11 10 11 11 10 12 12 16 25 33 37 35 31 29 31 27 33 32 29 31 29 28 30 29 27 26 26 26
41 36 33 33 31 29 26 25 23 20 19 17 16 14 12 12 10 13 9 9 9 10 12 14 19 27 29 25 27 31 33 32 31 28 25 26 27 27 23 22 23 24 25
46 43 41 39 39 34 34 32 27 24 23 22 20 18 17 15 14 14 14 12 12 13 10 10 10 15 17 20 25 26 25 23 22 26 27 23 23 24 25 24 23 23 23
50 49 47 44 44 42 39 39 34 28 28 26 23 22 18 17 16 16 17 16 14 14 13 10 5 5 8 14 18 25 27 28 29 23 23 24 24 24 23 23 25 26 25
44 42 51 53 45 46 50 51 40 33 33 30 26 25 21 20 20 17 17 18 18 16 17 15 12 9 6 7 8 10 13 14 17 20 23 23 23 23 23 25 26 27 28
19 35 18 31 53 53 55 53 45 36 36 34 30 27 25 23 22 22 19 20 21 20 22 20 17 14 12 11 11 13 15 17 19 20 21 23 23 24 26 27 26 27 26
12 19 15 11 18 32 40 37 46 38 36 39 33 28 30 27 25 26 23 23 22 21 22 24 22 21 19 18 18 19 20 19 22 21 23 25 25 27 28 27 27 27 26
18 16 22 25 20 24 31 36 40 39 38 40 36 34 32 29 27 28 26 25 23 22 25 23 25 25 24 26 23 24 23 23 23 22 23 25 26 28 27 25 26 26 26
22 24 21 23 18 21 25 29 42 46 42 38 38 38 33 30 29 28 27 25 27 25 27 26 25 26 26 25 26 27 25 23 22 23 23 25 24 23 24 26 26 26 26
16 21 23 21 21 22 20 15 31 40 34 38 42 39 38 33 34 31 30 29 28 29 28 28 28 30 28 26 24 23 26 25 25 26 27 24 23 23 23 25 26 26 26
20 22 23 26 24 20 17 19 24 27 38 42 38 38 40 38 39 37 34 32 30 33 33 31 32 31 32 31 28 27 28 28 31 29 29 24 27 25 22 22 23 26 25

GFSMA_500_spd_111.txt.gz
Wind_Speed
17 17 16 15 15 15 13 12 11 11 12 12 12 12 11 10 9 9 9 10 10 9 8 10 10 9 8 6 5 5 5 7 9 11 12 12 12 12 11 10 9 7 6
15 16 17 17 18 15 15 15 13 12 11 11 13 13 12 12 13 11 10 9 10 10 11 10 12 12 11 11 10 7 8 8 9 10 11 12 12 12 10 10 9 7 6
17 17 17 17 16 18 17 17 16 14 15 15 15 14 14 14 14 14 12 11 11 11 12 12 14 13 13 14 12 10 9 9 9 11 11 13 13 13 12 12 11 10 10
19 18 18 17 17 18 19 19 18 16 14 15 15 14 13 13 14 13 15 16 15 14 13 12 14 14 14 16 16 14 12 11 12 11 11 13 14 15 15 15 13 7 10
19 21 20 18 17 17 21 22 19 19 17 17 17 15 14 15 15 15 14 14 15 17 17 16 15 14 16 17 17 17 16 14 15 14 13 13 13 15 13 13 10 9 9
19 21 21 20 16 16 18 24 24 22 20 17 17 16 16 16 16 16 15 16 15 16 17 17 17 18 18 20 20 20 19 17 17 16 16 15 14 13 14 12 14 12 11
16 20 22 20 18 17 16 23 25 25 24 21 19 19 17 17 18 19 18 19 19 19 18 19 19 20 20 21 23 23 22 21 19 18 18 17 15 14 13 14 16 14 12
13 14 19 22 21 20 20 19 20 28 29 26 23 23 21 22 23 23 22 22 23 22 22 23 22 22 21 20 22 23 24 23 22 21 21 20 18 17 16 15 15 11 12
12 13 15 19 22 22 21 20 22 20 29 28 27 25 27 28 29 25 25 25 26 25 26 25 25 25 26 25 24 24 25 25 26 25 23 23 21 19 19 19 17 14 15
14 14 15 16 18 20 19 21 21 23 21 23 23 23 25 22 22 24 26 27 28 28 28 27 26 27 28 29 29 30 30 28 29 28 26 25 23 21 20 21 20 18 17
18 16 16 15 16 18 18 18 19 19 24 25 23 26 24 23 24 25 27 28 29 30 29 29 29 31 32 33 33 33 31 30 29 29 28 26 27 25 24 24 22 21 20
20 21 20 18 17 17 18 18 18 18 19 21 23 24 23 22 23 26 25 29 29 30 32 32 32 35 33 35 35 36 34 34 34 31 30 28 30 29 24 26 25 22 22
21 21 23 24 22 21 18 16 16 16 18 20 21 21 21 22 23 26 27 29 30 31 31 31 31 34 36 34 33 35 34 34 34 32 31 28 26 24 27 26 22 22 22
29 28 26 23 24 23 21 18 16 18 19 21 24 23 24 25 27 27 29 27 28 29 30 33 34 34 34 33 33 35 34 33 33 31 30 27 23 22 22 22 21 23 22
35 34 32 28 27 25 23 23 23 21 19 19 19 21 24 26 28 28 27 26 26 28 29 29 29 28 29 35 36 35 36 32 32 27 26 28 26 24 23 22 26 24 23
43 41 39 36 34 32 30 27 24 23 20 20 20 20 22 25 25 26 24 24 23 26 26 27 28 26 27 28 29 29 33 32 30 28 26 26 24 25 26 25 23 22 22
48 48 44 41 41 40 38 33 30 27 23 24 24 23 25 25 24 24 25 23 19 20 20 25 24 19 23 26 29 29 29 35 34 33 31 31 31 26 26 25 23 22 21
47 54 52 45 41 42 44 43 39 34 30 28 28 25 27 27 24 24 25 23 21 18 19 22 21 19 19 20 24 26 28 30 33 34 34 33 28 27 27 27 24 22 23
47 48 55 56 51 45 46 49 47 43 37 34 33 31 31 30 25 26 27 25 23 21 22 24 21 22 21 17 17 19 23 27 31 31 31 30 28 28 25 25 25 24 24
50 52 57 55 57 53 55 49 51 48 43 40 39 37 40 37 31 30 30 28 26 24 24 24 20 20 22 19 17 16 18 23 25 27 28 25 27 27 26 25 24 24 23
59 60 49 54 59 57 62 58 58 56 47 45 45 44 43 43 44 36 34 31 31 29 27 26 23 21 21 23 21 16 18 19 18 18 21 25 28 28 26 24 24 24 23
55 51 47 35 56 71 75 68 67 65 53 46 51 51 51 48 49 47 35 34 32 31 31 29 27 27 25 22 24 22 20 19 19 19 21 21 23 23 22 23 24 25 26
20 30 52 38 35 47 68 68 76 64 58 46 50 57 57 53 55 50 44 36 35 32 33 32 31 31 27 26 23 25 25 23 24 24 23 24 25 26 24 25 26 26 26
24 29 35 34 30 33 46 48 58 52 41 40 42 46 50 55 52 56 47 39 40 36 35 35 33 33 31 28 26 24 24 23 21 24 24 26 27 30 26 25 25 25 25
15 23 24 33 28 18 21 31 34 28 28 25 33 33 31 37 52 60 44 41 42 39 39 36 32 33 34 31 29 29 28 23 22 22 24 25 28 25 25 26 27 26 25
10 10 15 18 17 13 18 16 14 21 27 26 25 23 33 38 44 47 38 34 41 43 44 40 36 36 34 32 30 31 30 28 26 24 24 22 26 25 26 28 29 28 27

GFSMA_500_spd_114.txt.gz
Wind_Speed
22 20 18 17 15 14 20 16 17 18 17 16 15 14 13 12 12 11 11 11 11 9 9 10 11 10 9 8 7 6 6 7 7 8 9 10 10 10 7 8 7 6 6
17 20 23 15 16 15 13 15 16 17 17 18 17 16 16 15 13 12 12 11 11 10 10 10 10 12 12 10 10 10 9 8 8 9 10 10 10 10 10 9 9 8 8
16 16 16 18 17 18 16 17 17 18 18 19 19 19 18 17 16 14 13 12 11 10 11 12 13 13 14 13 12 12 12 11 10 10 11 11 12 13 12 13 14 8 6
19 19 19 19 19 18 19 18 19 19 18 19 19 19 17 17 16 15 16 15 14 13 14 13 13 14 15 15 15 14 15 14 13 12 11 11 14 13 14 13 10 6 4
20 21 20 19 19 19 20 21 20 20 18 18 19 18 18 18 17 17 16 16 16 18 18 16 16 15 16 17 17 16 17 17 16 16 17 14 16 15 14 12 11 13 10
21 22 23 22 20 20 22 25 25 23 22 20 19 19 19 20 19 18 17 16 16 17 18 19 19 20 19 19 17 18 20 19 19 18 17 18 17 16 15 14 11 11 11
20 23 23 24 24 23 23 21 28 28 25 23 22 22 21 20 19 19 19 20 19 18 18 19 21 21 20 20 20 21 21 21 21 20 20 19 19 18 18 16 14 14 17
15 18 21 24 25 23 21 18 22 29 28 27 26 24 23 21 21 21 21 21 21 21 21 23 22 22 22 21 21 22 23 22 23 22 22 21 21 21 20 18 17 15 13
16 16 17 18 23 23 21 21 21 23 27 30 30 28 26 26 25 25 26 27 26 25 26 26 26 26 25 26 26 25 25 25 24 24 24 24 24 23 22 21 19 17 16
16 16 16 16 18 22 23 22 22 22 26 25 32 33 31 30 34 33 33 31 29 27 28 28 29 29 29 30 30 31 30 29 28 28 28 28 25 25 24 22 22 21 19
19 18 18 17 18 19 21 21 21 25 24 26 27 31 31 31 28 27 22 24 27 29 30 31 31 32 32 32 32 31 33 34 32 31 30 29 27 28 27 28 28 25 22
22 21 20 19 19 19 21 22 22 22 23 23 27 28 29 28 29 27 26 27 27 29 32 34 34 35 36 35 35 35 35 34 36 35 34 34 33 30 29 29 31 25 24
22 21 22 21 20 19 19 20 20 23 23 22 24 24 23 23 23 24 24 25 27 28 30 29 31 32 34 34 34 33 36 34 36 36 36 36 32 31 29 26 25 26 23
29 27 25 22 21 21 21 20 20 19 24 24 24 22 22 23 23 24 25 27 26 26 28 28 32 32 30 30 32 33 35 35 35 36 36 36 33 32 28 24 23 22 21
38 33 30 27 25 22 22 23 23 24 21 22 24 23 23 24 23 24 26 26 26 25 26 28 29 32 30 25 29 31 33 34 39 37 36 32 29 28 28 27 24 23 23
34 42 39 35 32 29 27 26 26 25 24 23 24 26 23 22 22 23 25 23 24 24 24 28 29 28 27 28 31 31 28 29 29 33 33 30 27 25 25 24 27 24 23
49 54 43 42 38 36 34 32 29 29 28 25 26 26 28 28 24 21 22 22 23 21 22 24 26 23 22 25 26 27 28 27 27 29 32 31 29 31 27 28 28 27 25
51 49 43 41 40 40 39 38 37 35 33 33 32 33 32 32 31 25 22 23 23 23 21 23 25 22 22 24 24 23 24 24 22 25 30 34 32 33 32 29 29 27 26
53 54 50 48 42 42 37 39 41 42 41 38 40 37 39 39 37 36 28 25 22 21 22 25 27 25 25 24 24 23 22 20 22 22 27 28 27 32 31 28 29 27 25
53 51 53 50 48 43 39 37 40 42 42 41 40 42 41 43 43 42 39 32 26 23 26 27 28 27 26 25 25 23 22 23 21 22 26 21 31 27 30 25 26 24 24
53 54 57 52 53 48 49 46 43 47 47 47 46 45 48 47 46 50 45 40 35 32 28 29 31 29 29 27 28 25 25 24 25 19 19 19 21 25 25 29 29 26 24
57 62 59 60 54 57 56 52 55 54 56 54 53 47 48 52 53 54 54 46 46 39 33 30 33 32 34 30 30 29 28 27 26 24 21 18 16 17 17 19 22 23 24
58 58 61 62 62 61 57 54 61 64 60 62 62 61 59 58 60 60 50 52 47 50 44 33 33 34 36 35 33 30 28 27 28 27 28 26 23 21 20 21 22 23 24
56 61 62 62 63 66 63 68 66 65 63 58 64 61 62 62 63 63 61 48 48 51 53 40 35 35 38 36 34 33 32 29 28 26 26 27 27 25 23 26 27 26 25
40 33 34 32 40 43 53 58 48 42 40 47 60 60 58 61 67 50 49 38 49 45 55 48 37 39 39 37 34 34 35 32 30 28 27 23 25 23 21 23 27 27 25
14 16 17 13 18 26 41 39 36 33 31 29 34 39 46 52 50 51 52 40 37 40 49 46 42 43 43 41 37 36 37 37 34 31 28 27 26 26 23 21 25 26 26

GFSMA_500_spd_117.txt.gz
Wind_Speed
23 17 16 15 14 18 27 19 18 18 18 17 17 16 15 15 14 13 14 12 12 10 10 11 11 10 9 7 7 7 7 9 9 9 10 11 12 11 11 9 10 11 11
21 20 17 17 15 13 27 22 19 18 18 17 16 15 15 14 14 14 14 14 13 12 11 11 12 12 12 12 11 10 10 9 11 11 11 12 11 12 13 13 13 12 10
23 23 21 20 18 15 13 21 21 17 19 19 18 19 17 16 15 14 14 13 14 14 13 13 13 13 14 14 14 13 12 11 11 12 13 15 12 14 15 16 15 10 8
14 13 23 23 17 18 17 17 19 20 19 20 20 21 20 19 18 17 16 15 14 14 15 15 14 14 15 16 15 14 15 14 13 14 14 17 9 16 16 16 15 15 9
16 16 17 20 20 20 22 21 21 23 25 22 21 21 20 20 20 19 19 19 18 18 18 17 16 15 15 16 17 19 19 18 16 16 16 17 17 12 15 16 15 13 13
18 19 19 19 20 21 21 23 25 24 25 24 22 21 21 21 21 21 20 20 20 20 21 19 20 19 19 19 19 18 20 19 19 18 17 18 18 18 15 16 15 14 14
18 19 20 20 23 23 24 24 25 27 27 25 23 23 24 23 22 22 21 21 20 20 20 20 21 22 22 22 22 22 21 20 21 20 20 20 20 20 19 18 17 15 14
17 18 21 22 23 26 29 28 28 28 29 27 27 25 24 25 25 24 24 22 21 21 21 22 23 22 22 22 23 23 23 22 22 23 21 22 22 22 21 21 21 17 16
19 19 18 20 23 26 28 23 29 24 29 31 29 29 28 27 26 25 24 24 23 24 24 24 24 24 24 25 26 27 28 26 26 24 24 24 25 24 24 23 23 22 19
18 19 18 17 18 20 22 21 19 15 20 27 31 31 31 30 30 29 29 25 17 29 30 29 27 27 28 28 29 30 31 31 30 29 29 29 28 28 26 25 24 23 23
20 19 18 18 17 18 19 21 23 21 20 22 26 30 34 35 34 32 32 31 31 29 31 26 27 29 28 28 31 32 34 34 33 32 32 32 31 30 28 26 28 28 29
23 22 21 19 19 19 20 20 20 21 22 22 23 26 28 33 35 35 33 31 26 24 26 26 28 28 32 31 32 34 36 37 38 36 34 35 34 33 32 30 29 28 31
27 23 23 23 21 19 19 19 19 20 22 20 21 21 23 25 29 30 32 28 26 25 25 24 25 26 31 30 31 29 33 37 37 37 38 34 33 32 33 29 28 29 24
38 32 29 27 25 23 21 20 18 18 19 20 20 21 20 20 22 23 23 25 26 25 26 26 26 26 27 27 26 28 33 33 34 35 35 35 35 32 32 31 29 29 24
40 43 39 34 30 30 26 23 22 20 19 17 16 19 21 22 20 22 23 26 27 26 27 27 25 25 27 28 24 25 27 29 29 31 33 35 37 35 30 29 28 26 25
50 49 48 43 37 33 30 28 25 23 20 19 18 19 18 19 17 16 20 20 25 26 25 27 23 24 23 24 22 23 24 25 26 28 30 31 32 31 29 28 26 24 23
54 52 58 48 41 40 36 31 30 29 24 24 22 19 19 20 20 20 21 22 23 24 22 26 23 26 22 20 21 19 20 20 21 25 28 29 28 28 27 26 25 23 25
60 61 61 49 51 48 42 34 34 35 33 28 27 26 25 25 25 24 23 22 22 25 26 25 25 26 24 22 22 22 22 21 21 23 23 21 23 23 26 26 28 29 28
54 61 54 55 37 49 38 37 35 38 37 37 34 32 32 32 30 30 32 28 27 26 26 26 27 27 25 24 25 25 24 22 20 21 21 22 18 21 23 28 30 31 31
50 53 49 51 40 38 35 37 36 38 35 37 36 37 39 38 37 34 34 35 34 34 31 32 29 32 27 27 26 27 26 24 26 24 19 22 22 23 22 21 22 25 26
49 54 48 48 46 49 39 41 40 39 40 40 42 40 39 40 42 41 39 36 37 40 38 38 35 35 33 32 31 30 27 26 26 26 21 19 17 15 17 21 25 23 26
50 48 46 45 48 47 46 43 44 46 46 43 41 42 44 45 46 49 48 47 42 42 44 41 41 46 36 36 36 33 30 27 27 26 26 22 20 17 14 16 17 18 20
52 50 49 51 47 48 49 53 53 50 49 48 49 51 49 50 51 54 56 54 49 48 47 49 50 51 57 39 35 34 31 31 29 27 27 24 23 22 21 21 22 22 21
47 48 51 56 58 57 57 58 57 56 57 57 54 53 49 50 54 55 57 59 59 58 55 48 47 42 49 50 31 33 31 31 31 31 30 28 25 22 20 21 26 27 27
38 43 48 54 53 50 52 53 56 56 54 56 54 55 53 53 59 56 56 59 61 59 54 49 43 44 37 34 37 30 34 34 32 32 31 30 29 25 23 23 24 28 27
34 38 41 44 49 50 51 56 59 53 55 56 56 42 49 43 41 40 42 49 51 52 51 47 45 44 32 35 35 35 37 39 36 34 34 33 32 30 28 26 26 27 28

GFSMA_500_spd_123.txt.gz
Wind_Speed
23 21 27 29 26 20 19 20 17 20 19 18 17 15 14 13 14 12 13 9 8 9 7 7 8 9 8 6 6 5 5 5 6 9 10 11 16 11 12 15 16 17 18
14 13 26 24 29 21 21 20 18 20 20 19 18 16 14 14 14 12 10 11 11 11 9 8 9 10 9 9 9 9 8 7 7 7 9 10 13 11 11 13 15 16 18
9 14 13 23 21 23 23 23 26 21 20 20 19 18 16 16 15 14 13 14 13 9 13 9 10 10 11 11 12 13 13 11 10 10 9 10 10 8 8 13 13 15 14
5 14 15 21 21 28 29 31 31 22 19 20 18 19 18 18 15 14 13 13 13 15 15 12 14 14 13 13 14 15 16 15 13 13 12 12 13 10 12 13 14 15 14
8 8 11 13 12 16 26 17 23 27 26 21 17 20 18 18 17 16 15 16 16 15 14 14 14 15 16 15 16 16 16 17 16 15 15 16 18 17 16 14 14 14 13
9 9 8 6 11 16 16 13 13 21 23 28 22 21 19 20 20 21 20 19 18 19 18 18 18 17 18 18 18 19 19 19 19 17 17 18 17 18 19 18 17 16 15
10 12 14 13 14 15 21 16 16 18 18 27 26 26 25 23 23 24 24 22 19 19 19 19 20 19 20 21 21 21 21 21 20 20 18 18 20 19 19 20 19 18 17
13 14 14 17 19 19 18 19 19 21 21 26 31 29 27 27 26 28 24 21 21 19 17 17 19 19 20 20 21 22 21 22 21 21 20 20 20 21 20 19 20 21 20
16 15 16 15 18 20 20 23 24 24 24 24 28 29 29 28 29 29 24 23 21 20 21 20 19 20 21 20 22 24 24 25 25 25 24 22 22 22 23 23 22 24 25
17 18 18 17 16 19 19 24 26 25 25 28 32 31 31 31 31 30 27 24 24 23 22 21 22 22 24 26 27 27 26 27 27 29 27 26 24 25 25 26 24 24 27
19 19 20 20 19 20 21 21 22 24 25 22 21 30 34 32 32 29 28 26 26 26 24 23 26 26 26 24 28 30 31 32 25 30 30 27 27 27 27 28 28 26 26
30 24 23 23 23 21 24 24 24 23 23 23 21 19 21 24 30 32 29 29 30 30 29 27 28 27 23 23 21 23 21 22 32 31 28 26 25 26 28 30 30 30 27
39 32 27 26 26 27 25 28 25 23 23 22 24 24 23 22 26 26 26 26 29 29 30 29 27 25 21 21 19 19 20 23 27 28 27 26 25 27 27 29 29 29 30
43 39 38 32 29 30 31 28 27 27 25 24 25 25 24 23 25 25 22 23 20 20 21 21 18 17 19 23 24 23 21 24 21 23 25 25 22 25 28 28 26 26 28
42 43 42 45 36 36 34 34 31 29 30 27 26 27 26 26 25 22 19 18 17 16 16 17 15 16 19 22 23 21 20 16 17 19 20 21 22 23 26 28 26 24 24
45 46 45 50 58 37 40 41 39 35 33 32 28 26 26 25 24 23 21 17 17 15 14 14 13 13 15 19 22 20 19 17 15 17 17 19 21 23 24 23 25 23 23
47 47 48 48 48 46 49 48 46 43 39 35 33 29 27 26 21 19 18 15 14 13 13 15 13 11 10 15 17 18 18 18 18 18 18 20 19 20 23 19 19 20 21
49 52 52 47 50 55 56 63 45 48 45 40 36 34 31 29 25 22 19 17 16 16 14 16 15 15 16 17 19 20 18 19 21 22 21 20 19 20 21 17 15 15 18
49 50 59 63 46 51 60 65 58 59 50 44 41 37 35 33 29 26 23 21 21 21 20 17 21 18 19 21 21 24 21 19 21 23 26 24 22 18 18 18 17 16 17
51 53 56 60 62 63 57 40 37 54 65 47 45 41 40 37 33 32 29 25 25 24 25 24 24 23 22 21 22 23 22 22 24 24 24 25 25 20 18 19 15 14 13
45 46 52 52 54 59 60 63 36 30 54 50 52 47 45 41 37 38 35 31 29 29 29 28 26 28 26 25 26 25 23 25 33 31 32 27 25 23 17 19 18 12 12
42 41 44 44 48 50 51 51 50 57 28 35 50 54 48 47 41 43 40 32 33 31 30 31 31 29 30 29 30 31 30 28 31 30 27 26 24 26 20 18 19 20 16
38 38 37 39 38 38 36 35 30 33 37 30 43 48 54 64 42 42 41 36 34 33 32 32 34 33 34 35 31 33 36 34 28 30 26 24 23 26 25 25 22 19 21
31 32 32 33 33 33 33 33 33 30 29 28 24 33 37 52 53 47 48 38 33 34 32 32 33 31 34 35 33 35 38 37 32 27 26 23 24 25 24 25 27 25 21
31 27 33 31 31 31 33 33 36 34 30 28 33 33 33 48 50 48 32 30 33 34 33 32 34 35 34 34 35 39 39 37 29 26 30 23 25 22 22 24 25 26 26
31 30 28 27 22 23 28 31 34 33 33 31 32 33 32 39 36 36 33 32 34 35 35 36 36 37 34 36 41 38 38 39 33 34 31 25 29 25 23 23 26 28 27